BOX459 KATL-EDDF

Flight info

Callsign BOX459
Flight time N/A
Altitude 33000
Route JACCC2 KELLN Q58 GLOVR DCT RDU DCT ORF AR9 ZIBUT DCT LARGE DCT JENYY/N0488F350 DCT DOVEY/M085F350 NATW ATSUR/M084F370 DCT ARKIL/N0481F370 DCT OXLOW DCT KONAN DCT KOK DCT REMBA DCT SPI T180 NIVNU T847 IMCOM IMCOM1A
Aircraft B77L/H-SDE2E3GHIJ4J5M1P2RWXYZ/LB1D1

Departure

Time N/A
Airport Hartsfield Jackson Atlanta International Airport (KATL)

Arrival

Time 2026-05-05 09:25
Airport Frankfurt Main Airport (EDDF)
Time Latitude Longitude Altitude Speed Heading
2026-05-05 08:27 51.07455 -0.84878 36989 ft 491 kts 88°
2026-05-05 08:27 51.07628 -0.79459 36992 ft 491 kts 88°
2026-05-05 08:28 51.07963 -0.68615 36981 ft 492 kts 88°
2026-05-05 08:28 51.08290 -0.57737 36982 ft 492 kts 88°
2026-05-05 08:29 51.08604 -0.46947 36987 ft 492 kts 88°
2026-05-05 08:30 51.09061 -0.30658 36988 ft 491 kts 88°
2026-05-05 08:30 51.09353 -0.19809 36993 ft 491 kts 89°
2026-05-05 08:31 51.09635 -0.08969 36993 ft 490 kts 89°
2026-05-05 08:31 51.09907 0.01870 37015 ft 491 kts 89°
2026-05-05 08:32 51.10166 0.12653 37067 ft 491 kts 89°
2026-05-05 08:32 51.10418 0.23524 37102 ft 492 kts 89°
2026-05-05 08:33 51.10661 0.34426 37131 ft 493 kts 89°
2026-05-05 08:33 51.10894 0.45347 37135 ft 494 kts 89°
2026-05-05 08:34 51.11116 0.56223 37114 ft 495 kts 89°
2026-05-05 08:34 51.11329 0.67187 37083 ft 496 kts 89°
2026-05-05 08:35 51.11532 0.78158 37044 ft 496 kts 89°
2026-05-05 08:35 51.11726 0.89149 37010 ft 497 kts 90°
2026-05-05 08:36 51.11908 1.00070 36957 ft 497 kts 90°
2026-05-05 08:36 51.12080 1.11069 36973 ft 497 kts 90°
2026-05-05 08:37 51.12243 1.22073 36973 ft 498 kts 90°
2026-05-05 08:37 51.12395 1.33091 36963 ft 498 kts 90°
2026-05-05 08:38 51.12537 1.44102 36956 ft 498 kts 90°
2026-05-05 08:38 51.12668 1.55046 36956 ft 498 kts 90°
2026-05-05 08:39 51.12790 1.66070 36960 ft 498 kts 91°
2026-05-05 08:39 51.12901 1.77096 36964 ft 498 kts 91°
2026-05-05 08:40 51.13003 1.88129 36960 ft 498 kts 91°
2026-05-05 08:40 51.13089 1.99087 36963 ft 498 kts 92°
2026-05-05 08:41 51.12647 2.10044 36967 ft 496 kts 97°
2026-05-05 08:41 51.12002 2.20957 36956 ft 496 kts 97°
2026-05-05 08:42 51.11379 2.31885 36929 ft 496 kts 97°
2026-05-05 08:42 51.10777 2.42744 36938 ft 496 kts 97°
2026-05-05 08:43 51.10165 2.53656 36933 ft 496 kts 97°
2026-05-05 08:43 51.09457 2.64564 36931 ft 494 kts 102°
2026-05-05 08:44 51.07814 2.75091 36929 ft 490 kts 109°
2026-05-05 08:44 51.05863 2.85478 36926 ft 490 kts 109°
2026-05-05 08:45 51.03938 2.95800 36939 ft 491 kts 109°
2026-05-05 08:45 51.02017 3.06215 36931 ft 491 kts 109°
2026-05-05 08:46 51.00095 3.16635 36925 ft 492 kts 109°
2026-05-05 08:46 50.98176 3.26987 36919 ft 492 kts 109°
2026-05-05 08:47 50.96233 3.37396 36914 ft 492 kts 110°
2026-05-05 08:47 50.94280 3.47797 36914 ft 492 kts 110°
2026-05-05 08:48 50.92317 3.58194 36916 ft 492 kts 110°
2026-05-05 08:48 50.90346 3.68577 36916 ft 492 kts 110°
2026-05-05 08:49 50.88365 3.78953 36902 ft 492 kts 110°
2026-05-05 08:49 50.86388 3.89254 36908 ft 492 kts 110°
2026-05-05 08:50 50.84385 3.99633 36915 ft 493 kts 110°
2026-05-05 08:50 50.82380 4.09965 36912 ft 493 kts 110°
2026-05-05 08:51 50.80360 4.20317 36914 ft 493 kts 110°
2026-05-05 08:51 50.78354 4.30550 36909 ft 492 kts 110°
2026-05-05 08:52 50.76320 4.40864 36907 ft 491 kts 110°
2026-05-05 08:52 50.74280 4.51154 36910 ft 491 kts 111°
2026-05-05 08:53 50.72232 4.61428 36904 ft 490 kts 111°
2026-05-05 08:53 50.70193 4.71610 36892 ft 490 kts 111°
2026-05-05 08:54 50.68133 4.81847 36893 ft 490 kts 111°
2026-05-05 08:54 50.66064 4.92073 36897 ft 490 kts 111°
2026-05-05 08:55 50.63987 5.02250 36892 ft 490 kts 111°
2026-05-05 08:55 50.61906 5.12386 36890 ft 490 kts 111°
2026-05-05 08:56 50.59804 5.22583 36882 ft 490 kts 112°
2026-05-05 08:56 50.57692 5.32783 36885 ft 490 kts 112°
2026-05-05 08:57 50.55569 5.42981 36871 ft 491 kts 112°
2026-05-05 08:57 50.53464 5.53052 36877 ft 491 kts 112°
2026-05-05 08:58 50.51325 5.63239 36864 ft 491 kts 112°
2026-05-05 08:58 50.49351 5.73518 36869 ft 491 kts 110°
2026-05-05 08:59 50.47478 5.83805 36859 ft 489 kts 110°
2026-05-05 08:59 50.45593 5.93960 36877 ft 487 kts 110°
2026-05-05 09:00 50.43670 6.04128 36851 ft 486 kts 111°
2026-05-05 09:00 50.41737 6.14266 36875 ft 485 kts 111°
2026-05-05 09:01 50.39797 6.24408 36880 ft 486 kts 111°
2026-05-05 09:01 50.37846 6.34560 36858 ft 486 kts 111°
2026-05-05 09:01 50.36904 6.39530 36674 ft 480 kts 109°
2026-05-05 09:02 50.36172 6.44612 36215 ft 478 kts 104°
2026-05-05 09:02 50.35755 6.49808 35299 ft 485 kts 100°
2026-05-05 09:02 50.35453 6.55108 34311 ft 493 kts 99°
2026-05-05 09:02 50.35167 6.60475 33513 ft 495 kts 99°
2026-05-05 09:03 50.34862 6.65827 32894 ft 490 kts 99°
2026-05-05 09:03 50.34535 6.71096 32431 ft 483 kts 100°
2026-05-05 09:03 50.34201 6.76287 31966 ft 476 kts 99°
2026-05-05 09:03 50.33817 6.81332 31438 ft 470 kts 103°
2026-05-05 09:04 50.33113 6.86302 30656 ft 468 kts 109°
2026-05-05 09:04 50.32118 6.91158 29768 ft 469 kts 114°
2026-05-05 09:04 50.30819 6.95819 28889 ft 466 kts 119°
2026-05-05 09:04 50.29407 7.00402 27872 ft 470 kts 118°
2026-05-05 09:05 50.27993 7.05039 26872 ft 474 kts 118°
2026-05-05 09:05 50.26592 7.09700 26015 ft 473 kts 117°
2026-05-05 09:05 50.25205 7.14344 25180 ft 471 kts 117°
2026-05-05 09:05 50.23824 7.18965 24397 ft 468 kts 117°
2026-05-05 09:06 50.22472 7.23482 23731 ft 463 kts 117°
2026-05-05 09:06 50.21113 7.28003 23050 ft 457 kts 117°
2026-05-05 09:06 50.19775 7.32464 22314 ft 452 kts 116°
2026-05-05 09:06 50.18607 7.37001 21522 ft 449 kts 112°
2026-05-05 09:07 50.17543 7.41564 20752 ft 446 kts 112°
2026-05-05 09:07 50.16484 7.46090 20056 ft 442 kts 112°
2026-05-05 09:07 50.15424 7.50561 19400 ft 437 kts 113°
2026-05-05 09:07 50.14368 7.54974 18790 ft 433 kts 113°
2026-05-05 09:08 50.13318 7.59344 18160 ft 429 kts 113°
2026-05-05 09:08 50.12290 7.63616 17491 ft 425 kts 113°
2026-05-05 09:08 50.11152 7.67834 16838 ft 419 kts 118°
2026-05-05 09:08 50.09728 7.71762 16207 ft 413 kts 126°
2026-05-05 09:09 50.08081 7.75392 15570 ft 409 kts 128°
2026-05-05 09:09 50.06443 7.78989 14964 ft 406 kts 127°
2026-05-05 09:09 50.04831 7.82583 14376 ft 404 kts 127°
2026-05-05 09:09 50.03233 7.86166 13766 ft 402 kts 127°
2026-05-05 09:10 50.01655 7.89728 13131 ft 395 kts 125°
2026-05-05 09:10 50.00544 7.93523 12477 ft 394 kts 104°
2026-05-05 09:10 50.00354 7.97724 12216 ft 387 kts 88°
2026-05-05 09:10 50.00866 8.01766 12016 ft 376 kts 73°
2026-05-05 09:11 50.01783 8.05531 11753 ft 368 kts 69°
2026-05-05 09:11 50.02717 8.09172 11650 ft 357 kts 69°
2026-05-05 09:11 50.03620 8.12713 11512 ft 348 kts 70°
2026-05-05 09:11 50.04489 8.16173 11321 ft 340 kts 70°
2026-05-05 09:12 50.05326 8.19558 10984 ft 336 kts 70°
2026-05-05 09:12 50.06150 8.22931 10553 ft 334 kts 70°
2026-05-05 09:12 50.06968 8.26302 10122 ft 332 kts 70°
2026-05-05 09:12 50.07778 8.29642 9710 ft 328 kts 70°
2026-05-05 09:13 50.08580 8.32957 9267 ft 326 kts 70°
2026-05-05 09:13 50.09372 8.36246 8786 ft 324 kts 70°
2026-05-05 09:13 50.10162 8.39522 8376 ft 321 kts 71°
2026-05-05 09:13 50.10938 8.42758 8108 ft 317 kts 71°
2026-05-05 09:14 50.11685 8.45877 7942 ft 314 kts 71°
2026-05-05 09:14 50.12453 8.49087 7898 ft 319 kts 71°
2026-05-05 09:14 50.13219 8.52300 7866 ft 322 kts 71°
2026-05-05 09:14 50.14004 8.55575 7852 ft 322 kts 71°
2026-05-05 09:15 50.14782 8.58839 7855 ft 321 kts 71°
2026-05-05 09:15 50.15557 8.62097 7851 ft 321 kts 71°
2026-05-05 09:15 50.16330 8.65357 7853 ft 320 kts 71°
2026-05-05 09:15 50.17103 8.68606 7856 ft 320 kts 71°
2026-05-05 09:16 50.17878 8.71871 7750 ft 322 kts 71°
2026-05-05 09:16 50.18653 8.75147 7492 ft 320 kts 71°
2026-05-05 09:16 50.19406 8.78318 7240 ft 312 kts 71°
2026-05-05 09:16 50.20146 8.81453 6980 ft 304 kts 71°
2026-05-05 09:17 50.20867 8.84506 6730 ft 296 kts 71°
2026-05-05 09:17 50.21301 8.87532 6442 ft 281 kts 93°
2026-05-05 09:17 50.20869 8.90400 6192 ft 267 kts 121°
2026-05-05 09:17 50.19690 8.92477 6038 ft 250 kts 148°
2026-05-05 09:18 50.18240 8.93789 5986 ft 237 kts 153°
2026-05-05 09:18 50.16765 8.94787 5964 ft 233 kts 172°
2026-05-05 09:18 50.15181 8.94551 5918 ft 233 kts 204°
2026-05-05 09:18 50.13922 8.92992 5666 ft 236 kts 236°
2026-05-05 09:19 50.13335 8.90659 5406 ft 227 kts 254°
2026-05-05 09:19 50.12896 8.88339 5140 ft 220 kts 250°
2026-05-05 09:19 50.12397 8.86162 5009 ft 206 kts 248°
2026-05-05 09:19 50.11908 8.84094 4754 ft 201 kts 248°
2026-05-05 09:20 50.11426 8.82075 4439 ft 197 kts 248°
2026-05-05 09:20 50.10955 8.80095 4159 ft 193 kts 248°
2026-05-05 09:20 50.10499 8.78177 3897 ft 188 kts 249°
2026-05-05 09:20 50.10044 8.76269 3621 ft 183 kts 248°
2026-05-05 09:21 50.09613 8.74463 3366 ft 178 kts 249°
2026-05-05 09:21 50.09191 8.72685 3116 ft 173 kts 249°
2026-05-05 09:21 50.08770 8.70920 2886 ft 176 kts 249°
2026-05-05 09:21 50.08335 8.69106 2634 ft 180 kts 249°
2026-05-05 09:22 50.07903 8.67286 2371 ft 178 kts 249°
2026-05-05 09:22 50.07479 8.65498 2136 ft 177 kts 249°
2026-05-05 09:22 50.07058 8.63733 1858 ft 169 kts 250°
2026-05-05 09:22 50.06666 8.62094 1630 ft 153 kts 250°
2026-05-05 09:23 50.06311 8.60612 1440 ft 147 kts 250°
2026-05-05 09:23 50.05955 8.59116 1217 ft 148 kts 250°
2026-05-05 09:23 50.05598 8.57611 1011 ft 149 kts 250°
2026-05-05 09:23 50.05234 8.56100 797 ft 150 kts 250°
2026-05-05 09:24 50.04875 8.54585 585 ft 148 kts 250°
2026-05-05 09:24 50.04515 8.53089 388 ft 147 kts 250°
2026-05-05 09:24 50.04177 8.51679 335 ft 120 kts 250°
2026-05-05 09:24 50.03955 8.50751 327 ft 56 kts 250°
2026-05-05 09:25 50.03835 8.50388 322 ft 32 kts 227°
2026-05-05 09:25 50.03722 8.50227 319 ft 17 kts 218°
2026-05-05 09:25 50.03637 8.50202 324 ft 11 kts 146°
2026-05-05 09:25 50.03635 8.50315 326 ft 11 kts 70°
2026-05-05 09:26 50.03662 8.50428 332 ft 11 kts 68°
2026-05-05 09:26 50.03695 8.50538 330 ft 11 kts 64°
2026-05-05 09:26 50.03720 8.50654 331 ft 11 kts 72°
2026-05-05 09:26 50.03744 8.50769 333 ft 11 kts 70°
2026-05-05 09:27 50.03761 8.50886 338 ft 11 kts 94°
2026-05-05 09:27 50.03741 8.51003 352 ft 11 kts 114°
2026-05-05 09:27 50.03707 8.51112 352 ft 11 kts 116°
2026-05-05 09:27 50.03673 8.51220 357 ft 11 kts 116°
2026-05-05 09:28 50.03634 8.51342 361 ft 15 kts 116°
2026-05-05 09:28 50.03588 8.51491 366 ft 15 kts 116°
2026-05-05 09:28 50.03541 8.51639 363 ft 15 kts 117°
2026-05-05 09:28 50.03511 8.51795 361 ft 16 kts 85°
2026-05-05 09:29 50.03526 8.51984 355 ft 20 kts 83°
2026-05-05 09:29 50.03544 8.52210 350 ft 22 kts 83°
2026-05-05 09:29 50.03584 8.52448 351 ft 21 kts 71°
2026-05-05 09:29 50.03598 8.52621 345 ft 16 kts 83°
2026-05-05 09:30 50.03630 8.52772 346 ft 11 kts 69°
2026-05-05 09:30 50.03623 8.52860 356 ft 9 kts 129°
2026-05-05 09:30 50.03580 8.52932 353 ft 10 kts 95°
2026-05-05 09:30 50.03600 8.53033 350 ft 10 kts 69°
2026-05-05 09:31 50.03624 8.53133 355 ft 10 kts 69°
2026-05-05 09:31 50.03648 8.53232 357 ft 10 kts 69°
2026-05-05 09:31 50.03688 8.53262 351 ft 7 kts 343°
2026-05-05 09:31 50.03723 8.53243 352 ft 5 kts 340°
2026-05-05 09:32 50.03741 8.53233 347 ft 0 kts 340°